Weather in Sadovoye

Russia / Kaliningrad Oblast     54°43′04″N   22°26′40″E
temp.,
°C
wind,
m/s
gust,
m/s
humid.,
%
clouds,
%
prec.,
mm/h
press.,
hPa
HPBL,
m
18 may, wed
wed1823:00+3nnw38764 0.0 1025177
02:00+1nnw36880 0.0 1026113
05:00+1nnw35915 0.0 1027108
08:00+8nnw34675 0.0 1029421
11:00+12nw34565 0.0 10291136
14:00+14wnw45535 0.0 10281269
17:00+13wnw56520 0.0 1027971
20:00+8wnw34761 0.0 102773
19 may, thu
thu1923:00+4wsw227876 0.0 102721
02:00+4sw359077 0.0 102664
05:00+5sw3108878 0.0 1025172
08:00+11wsw596199 0.0 1025341
11:00+16wsw5750100 0.0 1024692
14:00+19wsw5649100 0.0 1023979
17:00+19wsw466197 0.0 1021908
20:00+15sw3580100 0.0 102077
20 may, fri
fri2023:00+13sw3481100 0.0 101967
02:00+12ssw387398 0.0 1018134
05:00+13ssw4973100 0.0 1016185
08:00+17sw51172100 0.0 1014396
11:00+21w71170100 0.0 10141186
14:00+18wnw81171100 0.1 1014915
17:00+16wnw71264100 0.0 1014985
20:00+12wnw6138030 0.0 1014737
21 may, sat
sat2123:00+9w51396100 0.0 1012521
02:00+9w4789100 0.1 1011436
05:00+10nw2390100 0.0 1010230
08:00+11e128799 0.0 1008471
11:00+14ese2375100 0.1 1007904
14:00+13nnw1188100 1.8 1006212
17:00+11nnw1295100 1.8 100567
20:00+11wnw2297100 4.1 100471
22 may, sun
sun2223:00+10nne3599100 0.7 1005270
02:00+9n3699100 0.9 1005340
05:00+9nnw3699100 1.0 1006452
08:00+9nne4896100 1.4 1008549
11:00+9ne5996100 0.5 1010625
14:00+12ene378198 0.6 1012924
17:00+13nne3781100 0.5 1013518
20:00+11nw2280100 0.8 101511